Flag for Germany Weather past 2 weeks in Willich, North Rhine-Westphalia, Germany

Now
79 °F

Clear.


Feels Like: 79 °F
Forecast: 61 / 78 °F
Wind: 2 mph from North

Location: Monchengladbach Airport

Current Time: Jul 31, 2014 at 6:38:47 PM

Latest Report: Jul 31, 2014 at 6:20 PM


Visibility: 10 mi

Pressure: 29.92 "Hg

Humidity: 37%

Dew point: 50 °F

Location of WillichLocation

Historic Weather in Willich — Graph

°F

Willich temperature yesterday

Maximum temperature yesterday: 75 °F (at 4:50 PM)
Minimum temperature yesterday: 63 °F (at 7:50 AM)
Average temperature yesterday: 70 °F

Past Weeks' High & Low Weather Summary

 TemperatureHumidityPressure
High91 °F (Jul 19, 4:50 PM)100% (Jul 17, 7:50 AM)30.18 "Hg (Jul 17, 7:50 AM)
Low59 °F (Jul 31, 7:50 AM)29% (Jul 19, 12:50 PM)29.77 "Hg (Jul 20, 8:20 AM)
Average74 °F67%29.94 "Hg
* Reported Jul 16 5:20 PM — Jul 31 5:20 PM, Willich, Weather by CustomWeather, © 2014

Note: Actual official high and low records may vary slightly from our data, if they occured in-between our weather recording intervals... More about our weather records

Advertising

Willich weather history for previous 24 hours

 ConditionsComfort  
Time TempWeatherWind HumidityBarometerVisibility
5:20 PM
Jul 31
79 °FClear.3 mph37%29.95 "Hg10 mi
4:50 PM79 °FClear.2 mph42%29.95 "Hg10 mi
4:20 PM79 °FClear.5 mph42%29.95 "Hg10 mi
3:50 PM77 °FClear.2 mph47%29.95 "Hg10 mi
3:20 PM77 °FClear.3 mph47%29.98 "Hg10 mi
2:50 PM75 °FPassing clouds.5 mph50%29.98 "HgN/A
2:20 PM75 °FClear.5 mph50%29.98 "Hg10 mi
1:50 PM73 °FClear.5 mph53%29.98 "Hg10 mi
1:20 PM73 °FSunny.5 mph57%30.01 "Hg10 mi
12:50 PM72 °FSunny.5 mph57%30.01 "Hg10 mi
12:20 PM72 °FSunny.3 mph57%30.01 "Hg10 mi
11:50 AM70 °FSunny.3 mph57%30.01 "Hg10 mi
11:20 AM68 °FSunny.2 mph64%30.01 "Hg10 mi
10:50 AM68 °FSunny.2 mph64%30.01 "Hg10 mi
10:20 AM66 °FSunny.2 mph68%30.01 "Hg10 mi
9:50 AM64 °FSunny.3 mph73%30.01 "Hg10 mi
9:20 AM66 °FSunny.2 mph73%30.01 "Hg10 mi
8:50 AM64 °FSunny.2 mph78%30.01 "Hg10 mi
8:20 AM63 °FSunny.1 mph83%30.01 "Hg10 mi
7:50 AM59 °FSunny.2 mph88%30.01 "Hg10 mi
9:20 PM
Jul 30
70 °FPassing clouds.7 mph69%29.95 "HgN/A
8:50 PM70 °FClear.8 mph69%29.95 "Hg10 mi
8:20 PM72 °FClear.8 mph65%29.95 "Hg10 mi
7:50 PM72 °FPassing clouds.8 mph65%29.92 "HgN/A
7:20 PM72 °FPassing clouds.9 mph61%29.92 "HgN/A
6:50 PM73 °FPassing clouds.6 mph57%29.92 "HgN/A
6:20 PM72 °FPassing clouds.7 mph61%29.92 "HgN/A
Weather by CustomWeather, © 2014

See weather overviewHow to use our weather pages